When you browse on this site, cookies collect data to enhance your experience and personalize the content and advertising you see.
Visit our Privacy Policy to learn more. By continuing to use the site, you agree to this use of cookies and data.
  • en Suisse
  • Liste des pays
  • À 7 jours
  • Température de l'eau
  • Carte satellitaire
  • Carte météo
  • Widgets météo
  • user-avatar
    Se connecter

    Météo par heure à Plai

    Ce jour, 18 Avril, Jeudi

    Heure Température Précipitation Vent Pression Humidité
    00:00 +4°C° 0.2 mm 1 m/s 688 mmHg 99%
    01:00 +4°C° 0.2 mm 1 m/s 688 mmHg 99%
    02:00 +3°C° 0 mm 2 m/s 688 mmHg 99%
    03:00 +3°C° 0.6 mm 2 m/s 688 mmHg 98%
    04:00 +3°C° 0.6 mm 2 m/s 688 mmHg 98%
    05:00 +3°C° 0.6 mm 2 m/s 689 mmHg 98%
    06:00 +3°C° 0.4 mm 2 m/s 689 mmHg 98%
    07:00 +3°C° 0.4 mm 2 m/s 689 mmHg 97%
    08:00 +4°C° 0.4 mm 2 m/s 689 mmHg 97%
    09:00 +4°C° 0.1 mm 2 m/s 689 mmHg 94%
    10:00 +5°C° 0.1 mm 2 m/s 690 mmHg 91%
    11:00 +6°C° 0.1 mm 2 m/s 690 mmHg 88%
    12:00 +6°C° 0.1 mm 2 m/s 690 mmHg 83%
    13:00 +7°C° 0.1 mm 2 m/s 690 mmHg 78%
    14:00 +8°C° 0.1 mm 2 m/s 690 mmHg 73%
    15:00 +8°C° 0.1 mm 2 m/s 690 mmHg 74%
    16:00 +8°C° 0.1 mm 2 m/s 690 mmHg 75%
    17:00 +7°C° 0.1 mm 2 m/s 689 mmHg 76%
    18:00 +6°C° 0 mm 2 m/s 689 mmHg 82%
    19:00 +5°C° 0 mm 1 m/s 689 mmHg 88%
    20:00 +4°C° 0 mm 1 m/s 689 mmHg 93%
    21:00 +3°C° 0 mm 1 m/s 689 mmHg 93%
    22:00 +3°C° 0 mm 1 m/s 689 mmHg 92%
    23:00 +2°C° 0 mm 1 m/s 689 mmHg 92%

    Demain, 19 Avril, Vendredi

    Heure Température Précipitation Vent Pression Humidité
    00:00 +2°C° 0 mm 1 m/s 689 mmHg 91%
    01:00 +2°C° 0 mm 1 m/s 689 mmHg 90%
    02:00 +2°C° 0 mm 1 m/s 689 mmHg 89%
    03:00 +2°C° 0 mm 1 m/s 689 mmHg 90%
    04:00 +2°C° 0 mm 1 m/s 688 mmHg 91%
    05:00 +2°C° 0 mm 1 m/s 688 mmHg 92%
    06:00 +3°C° 0 mm 2 m/s 689 mmHg 87%
    07:00 +3°C° 0 mm 3 m/s 689 mmHg 83%
    08:00 +5°C° 0 mm 3 m/s 689 mmHg 78%
    09:00 +5°C° 0.1 mm 4 m/s 689 mmHg 72%
    10:00 +6°C° 0.1 mm 5 m/s 689 mmHg 67%
    11:00 +7°C° 0.1 mm 5 m/s 689 mmHg 61%
    12:00 +7°C° 0 mm 6 m/s 689 mmHg 58%
    13:00 +7°C° 0 mm 6 m/s 689 mmHg 55%
    14:00 +7°C° 0 mm 6 m/s 689 mmHg 52%
    15:00 +7°C° 0 mm 5 m/s 689 mmHg 56%
    16:00 +6°C° 0 mm 5 m/s 689 mmHg 60%
    17:00 +5°C° 0 mm 5 m/s 689 mmHg 64%
    18:00 +4°C° 0 mm 4 m/s 689 mmHg 71%
    19:00 +3°C° 0 mm 3 m/s 689 mmHg 78%
    20:00 +2°C° 0 mm 2 m/s 689 mmHg 85%
    21:00 +2°C° 0 mm 2 m/s 690 mmHg 84%
    22:00 +2°C° 0 mm 2 m/s 690 mmHg 83%
    23:00 +2°C° 0 mm 2 m/s 690 mmHg 82%

    Après-demain, 20 Avril, Samedi

    Heure Température Précipitation Vent Pression Humidité
    00:00 +3°C° 0 mm 1 m/s 690 mmHg 84%
    01:00 +2°C° 0 mm 1 m/s 690 mmHg 87%
    02:00 +2°C° 0 mm 1 m/s 690 mmHg 89%
    03:00 +1°C° 0 mm 1 m/s 690 mmHg 90%
    04:00 +1°C° 0 mm 1 m/s 690 mmHg 91%
    05:00 +1°C° 0 mm 1 m/s 690 mmHg 92%
    06:00 +2°C° 0 mm 1 m/s 690 mmHg 84%
    07:00 +4°C° 0 mm 1 m/s 690 mmHg 76%
    08:00 +6°C° 0 mm 1 m/s 691 mmHg 69%
    09:00 +6°C° 0 mm 2 m/s 691 mmHg 63%
    10:00 +7°C° 0 mm 2 m/s 691 mmHg 57%
    11:00 +8°C° 0 mm 3 m/s 691 mmHg 51%
    12:00 +9°C° 0 mm 3 m/s 691 mmHg 49%
    13:00 +9°C° 0 mm 3 m/s 690 mmHg 47%
    14:00 +10°C° 0 mm 3 m/s 690 mmHg 45%
    15:00 +9°C° 0 mm 3 m/s 690 mmHg 48%
    16:00 +9°C° 0 mm 3 m/s 689 mmHg 51%
    17:00 +8°C° 0 mm 3 m/s 689 mmHg 54%
    18:00 +6°C° 0 mm 2 m/s 689 mmHg 64%
    19:00 +6°C° 0 mm 1 m/s 688 mmHg 73%
    20:00 +3°C° 0 mm 0 m/s 688 mmHg 83%
    21:00 +3°C° 0 mm 0 m/s 688 mmHg 84%
    22:00 +2°C° 0 mm 0 m/s 688 mmHg 85%
    23:00 +2°C° 0 mm 0 m/s 688 mmHg 86%

    21 Avril, Dimanche

    Heure Température Précipitation Vent Pression Humidité
    00:00 +2°C° 0 mm 0 m/s 687 mmHg 87%
    01:00 +1°C° 0 mm 0 m/s 687 mmHg 87%
    02:00 +1°C° 0 mm 0 m/s 687 mmHg 88%
    03:00 +1°C° 0 mm 0 m/s 687 mmHg 88%
    04:00 +2°C° 0 mm 1 m/s 687 mmHg 88%
    05:00 +1°C° 0 mm 1 m/s 686 mmHg 87%
    06:00 +3°C° 0 mm 0 m/s 687 mmHg 78%
    07:00 +5°C° 0 mm 0 m/s 687 mmHg 69%
    08:00 +7°C° 0 mm 0 m/s 688 mmHg 59%
    09:00 +8°C° 0 mm 0 m/s 688 mmHg 57%
    10:00 +8°C° 0 mm 0 m/s 688 mmHg 55%
    11:00 +10°C° 0 mm 1 m/s 688 mmHg 52%
    12:00 +11°C° 0.4 mm 1 m/s 688 mmHg 54%
    13:00 +11°C° 0.4 mm 1 m/s 687 mmHg 57%
    14:00 +12°C° 0.4 mm 1 m/s 687 mmHg 59%
    15:00 +11°C° 0.7 mm 1 m/s 687 mmHg 65%
    16:00 +10°C° 0.7 mm 1 m/s 686 mmHg 70%
    17:00 +9°C° 0.7 mm 1 m/s 686 mmHg 76%
    18:00 +7°C° 0.3 mm 1 m/s 686 mmHg 81%
    19:00 +6°C° 0.3 mm 1 m/s 685 mmHg 87%
    20:00 +4°C° 0.3 mm 1 m/s 685 mmHg 92%
    21:00 +4°C° 0 mm 1 m/s 685 mmHg 92%
    22:00 +4°C° 0 mm 1 m/s 685 mmHg 93%
    23:00 +3°C° 0 mm 1 m/s 685 mmHg 93%

    22 Avril, Lundi

    Heure Température Précipitation Vent Pression Humidité
    00:00 +3°C° 0 mm 1 m/s 685 mmHg 93%
    01:00 +3°C° 0 mm 1 m/s 685 mmHg 93%
    02:00 +2°C° 0 mm 1 m/s 685 mmHg 93%
    03:00 +2°C° 0 mm 1 m/s 685 mmHg 93%
    04:00 +2°C° 0 mm 1 m/s 685 mmHg 93%
    05:00 +2°C° 0 mm 1 m/s 685 mmHg 93%
    06:00 +4°C° 0.1 mm 1 m/s 685 mmHg 89%
    07:00 +5°C° 0.1 mm 1 m/s 686 mmHg 85%
    08:00 +7°C° 0.1 mm 1 m/s 686 mmHg 81%
    09:00 +8°C° 0.6 mm 1 m/s 686 mmHg 81%
    10:00 +8°C° 0.6 mm 1 m/s 686 mmHg 80%
    11:00 +9°C° 0.6 mm 1 m/s 686 mmHg 79%
    12:00 +9°C° 1.2 mm 1 m/s 686 mmHg 80%
    13:00 +8°C° 1.2 mm 2 m/s 686 mmHg 81%
    14:00 +8°C° 1.2 mm 2 m/s 686 mmHg 82%
    15:00 +8°C° 0.6 mm 2 m/s 686 mmHg 82%
    16:00 +8°C° 0.6 mm 2 m/s 686 mmHg 82%
    17:00 +8°C° 0.6 mm 2 m/s 685 mmHg 83%
    18:00 +7°C° 0.3 mm 2 m/s 686 mmHg 87%
    19:00 +6°C° 0.3 mm 1 m/s 686 mmHg 91%
    20:00 +5°C° 0.3 mm 1 m/s 686 mmHg 95%
    21:00 +5°C° 0.1 mm 1 m/s 686 mmHg 95%
    22:00 +5°C° 0.1 mm 1 m/s 686 mmHg 95%
    23:00 +4°C° 0.1 mm 1 m/s 686 mmHg 96%

    23 Avril, Mardi

    Heure Température Précipitation Vent Pression Humidité
    00:00 +4°C° 0 mm 1 m/s 686 mmHg 95%
    01:00 +3°C° 0 mm 1 m/s 686 mmHg 95%
    02:00 +3°C° 0 mm 1 m/s 686 mmHg 95%
    03:00 +1°C° 0 mm 2 m/s 686 mmHg 94%
    04:00 +1°C° 0 mm 2 m/s 687 mmHg 94%
    05:00 +1°C° 0 mm 2 m/s 687 mmHg 93%
    06:00 +2°C° 0 mm 2 m/s 687 mmHg 87%
    07:00 +4°C° 0 mm 2 m/s 688 mmHg 80%
    08:00 +6°C° 0 mm 2 m/s 688 mmHg 74%
    09:00 +7°C° 0 mm 3 m/s 688 mmHg 64%
    10:00 +8°C° 0 mm 4 m/s 688 mmHg 54%
    11:00 +9°C° 0 mm 5 m/s 688 mmHg 45%
    12:00 +10°C° 0 mm 5 m/s 688 mmHg 45%
    13:00 +10°C° 0 mm 5 m/s 688 mmHg 45%
    14:00 +11°C° 0 mm 6 m/s 688 mmHg 44%
    15:00 +12°C° 0 mm 5 m/s 688 mmHg 49%
    16:00 +10°C° 0 mm 5 m/s 687 mmHg 53%
    17:00 +10°C° 0 mm 5 m/s 687 mmHg 57%
    18:00 +8°C° 0 mm 4 m/s 687 mmHg 65%
    19:00 +7°C° 0 mm 3 m/s 687 mmHg 74%
    20:00 +5°C° 0 mm 2 m/s 687 mmHg 82%
    21:00 +5°C° 0 mm 2 m/s 687 mmHg 85%
    22:00 +4°C° 0 mm 2 m/s 687 mmHg 88%
    23:00 +4°C° 0 mm 2 m/s 687 mmHg 91%
    Voir plus